Hourly Data Report for June 26, 2017

All times are specified in Local Standard Time (LST). Add 1 hour to adjust for Daylight Saving Time where and when it is observed.

LUNENBURG
NOVA SCOTIA

44°21'36.094" N
64°17'46.082" W
3.80 m
8203210
XLB

Related Data

No related data is available for this station

Download Data

Hourly Data (June 2017)
Hourly Data Report for June 26, 2017
Temp Definition
°C
Dew Point Temp Definition
°C
Rel Hum Definition
%
Wind Dir Definition
10's deg

Wind Spd Definition
km/h
Visibility Definition
km
Stn Press Definition
kPa
Hmdx Definition


Wind Chill Definition


Weather Definition


TIME
00:00 16.1 11.9 76 24 17   101.14     LegendNANA
01:00 15.3 11.9 80 23 11   101.12     LegendNANA
02:00 14.8 11.7 82 22 8   101.11     LegendNANA
03:00 13.8 11.6 87 20 3   101.11     LegendNANA
04:00 12.3 10.8 91 18 3   101.09     LegendNANA
05:00 12.9 11.1 89 20 8   101.05     LegendNANA
06:00 13.1 10.9 86 21 10   101.06     LegendNANA
07:00 14.2 10.8 80 16 10   101.05     LegendNANA
08:00 14.0 10.2 78 22 19   101.11     LegendNANA
09:00 16.2 11.3 73 8 4   101.09     LegendNANA
10:00 12.9 10.7 86 8 13   101.03     LegendNANA
11:00 14.4 11.7 84 7 13   101.03     LegendNANA
12:00 17.4 12.7 74 17 19   101.05     LegendNANA
13:00 18.5 13.0 70 18 26   101.01     LegendNANA
14:00 19.4 12.2 63 18 26   100.98     LegendNANA
15:00 19.2 10.7 58 17 26   101.00     LegendNANA
16:00 21.9 8.6 42 23 29   100.99     LegendNANA
17:00 22.5 7.1 37 22 31   101.01     LegendNANA
18:00 21.7 6.7 38 22 30   101.06     LegendNANA
19:00 21.0 7.5 42 24 25   101.12     LegendNANA
20:00 19.0 9.2 53 25 20   101.19     LegendNANA
21:00 15.6 10.5 71 24 12   101.29     LegendNANA
22:00 15.5 10.8 74 25 15   101.37     LegendNANA
23:00 16.1 11.3 73 26 9   101.39     LegendNANA

Notes on Data Quality.

Legend

  • E = Estimated
  • M = Missing
  • NA = Not Available
  • ‡ = Partner data that is not subject to review by the National Climate Archives
Date modified: